Time,TemperatureF,DewpointF,PressureIn,WindDirection,WindDirectionDegrees,WindSpeedMPH,WindSpeedGustMPH,Humidity,HourlyPrecipIn,Conditions,Clouds,dailyrainin,SoftwareType,DateUTC
2013-01-27 00:01:00,56.0,54.0,30.05,NE,53,1.0,5.0,92,0.00,,,0.00,,2013-01-27 06:01:00,
2013-01-27 00:11:00,56.0,54.0,30.05,NE,53,1.0,5.0,92,0.00,,,0.00,,2013-01-27 06:11:00,
2013-01-27 00:21:00,56.0,54.0,30.04,NE,53,3.0,5.0,92,0.00,,,0.00,,2013-01-27 06:21:00,
2013-01-27 00:32:00,56.0,54.0,30.04,NE,53,3.0,7.0,92,0.00,,,0.00,,2013-01-27 06:32:00,
2013-01-27 00:42:00,56.0,54.0,30.04,NE,53,3.0,7.0,92,0.00,,,0.00,,2013-01-27 06:42:00,
2013-01-27 00:51:00,57.0,55.0,30.03,NE,53,3.0,6.0,92,0.00,,,0.00,,2013-01-27 06:51:00,
2013-01-27 01:01:00,57.0,55.0,30.03,NE,53,3.0,6.0,92,0.00,,,0.00,,2013-01-27 07:01:00,
2013-01-27 01:14:00,57.0,55.0,30.03,NE,53,3.0,6.0,92,0.00,,,0.00,,2013-01-27 07:14:00,
2013-01-27 01:21:00,58.0,55.0,30.03,NE,53,1.0,6.0,91,0.00,,,0.00,,2013-01-27 07:21:00,
2013-01-27 01:31:00,58.0,55.0,30.03,NE,53,2.0,7.0,91,0.00,,,0.00,,2013-01-27 07:31:00,
2013-01-27 01:41:00,58.0,55.0,30.03,NE,53,2.0,7.0,91,0.00,,,0.00,,2013-01-27 07:41:00,
2013-01-27 01:51:00,59.0,57.0,30.03,SE,125,6.0,13.0,92,0.00,,,0.00,,2013-01-27 07:51:00,
2013-01-27 02:01:00,61.0,59.0,30.03,South,175,4.0,16.0,92,0.00,,,0.00,,2013-01-27 08:01:00,
2013-01-27 02:11:00,61.0,59.0,30.03,South,175,4.0,16.0,92,0.00,,,0.00,,2013-01-27 08:11:00,
2013-01-27 02:22:00,61.0,58.0,30.03,SSE,160,6.0,13.0,91,0.00,,,0.00,,2013-01-27 08:22:00,
2013-01-27 02:31:00,61.0,58.0,30.02,SSE,157,5.0,10.0,91,0.00,,,0.00,,2013-01-27 08:31:00,
2013-01-27 02:42:00,61.0,58.0,30.02,SSE,157,5.0,10.0,91,0.00,,,0.00,,2013-01-27 08:42:00,
2013-01-27 02:52:00,61.0,58.0,30.02,SSE,152,4.0,8.0,91,0.00,,,0.00,,2013-01-27 08:52:00,
2013-01-27 03:02:00,61.0,58.0,30.01,SSE,152,1.0,6.0,90,0.00,,,0.00,,2013-01-27 09:02:00,
2013-01-27 03:11:00,61.0,58.0,30.01,SSE,152,1.0,6.0,90,0.00,,,0.00,,2013-01-27 09:11:00,
2013-01-27 03:21:00,62.0,59.0,30.01,SSE,152,4.0,9.0,90,0.00,,,0.00,,2013-01-27 09:21:00,
2013-01-27 03:32:00,62.0,59.0,30.01,South,180,6.0,14.0,90,0.00,,,0.00,,2013-01-27 09:32:00,
2013-01-27 03:41:00,62.0,59.0,30.01,South,180,6.0,14.0,90,0.00,,,0.00,,2013-01-27 09:41:00,
2013-01-27 03:51:00,62.0,59.0,30.01,South,183,3.0,11.0,89,0.00,,,0.00,,2013-01-27 09:51:00,
2013-01-27 04:01:00,62.0,59.0,30.01,South,182,2.0,13.0,89,0.00,,,0.00,,2013-01-27 10:01:00,
2013-01-27 04:11:00,62.0,59.0,30.01,South,182,2.0,13.0,89,0.00,,,0.00,,2013-01-27 10:11:00,
2013-01-27 04:21:00,62.0,59.0,30.01,South,182,2.0,13.0,89,0.00,,,0.00,,2013-01-27 10:21:00,
2013-01-27 04:31:00,62.0,58.0,30.01,South,186,7.0,12.0,88,0.00,,,0.00,,2013-01-27 10:31:00,
2013-01-27 04:42:00,62.0,58.0,30.01,South,186,7.0,12.0,88,0.00,,,0.00,,2013-01-27 10:42:00,
2013-01-27 04:52:00,62.0,58.0,30.01,South,186,3.0,12.0,88,0.00,,,0.00,,2013-01-27 10:52:00,
2013-01-27 05:01:00,62.0,58.0,30.00,South,184,0.0,10.0,88,0.00,,,0.00,,2013-01-27 11:01:00,
2013-01-27 05:11:00,62.0,58.0,29.99,South,175,3.0,12.0,88,0.00,,,0.00,,2013-01-27 11:11:00,
2013-01-27 05:21:00,62.0,58.0,29.99,South,175,3.0,12.0,88,0.00,,,0.00,,2013-01-27 11:21:00,
2013-01-27 05:32:00,62.0,58.0,29.99,South,176,3.0,11.0,88,0.00,,,0.00,,2013-01-27 11:32:00,
2013-01-27 05:42:00,62.0,58.0,29.99,South,176,3.0,11.0,88,0.00,,,0.00,,2013-01-27 11:42:00,
2013-01-27 05:52:00,62.0,58.0,30.00,South,182,6.0,12.0,88,0.00,,,0.00,,2013-01-27 11:52:00,
2013-01-27 06:02:00,62.0,58.0,29.99,South,179,2.0,15.0,87,0.00,,,0.00,,2013-01-27 12:02:00,
2013-01-27 06:11:00,62.0,58.0,29.99,South,179,2.0,15.0,87,0.00,,,0.00,,2013-01-27 12:11:00,
2013-01-27 06:21:00,62.0,58.0,29.99,South,179,3.0,11.0,87,0.00,,,0.00,,2013-01-27 12:21:00,
2013-01-27 06:32:00,62.0,58.0,29.99,South,178,3.0,10.0,87,0.00,,,0.00,,2013-01-27 12:32:00,
2013-01-27 06:42:00,62.0,58.0,29.99,South,178,3.0,10.0,87,0.00,,,0.00,,2013-01-27 12:42:00,
2013-01-27 06:52:00,62.0,58.0,29.99,South,176,1.0,7.0,87,0.00,,,0.00,,2013-01-27 12:52:00,
2013-01-27 07:02:00,61.0,57.0,29.99,South,176,1.0,9.0,87,0.00,,,0.00,,2013-01-27 13:02:00,
2013-01-27 07:11:00,61.0,57.0,29.99,South,176,1.0,9.0,87,0.00,,,0.00,,2013-01-27 13:11:00,
2013-01-27 07:22:00,61.0,57.0,29.99,South,171,2.0,12.0,88,0.00,,,0.00,,2013-01-27 13:22:00,
2013-01-27 07:32:00,61.0,57.0,30.00,SSE,166,4.0,11.0,88,0.00,,,0.00,,2013-01-27 13:32:00,
2013-01-27 07:42:00,61.0,57.0,30.00,SSE,166,4.0,11.0,88,0.00,,,0.00,,2013-01-27 13:42:00,
2013-01-27 07:52:00,62.0,59.0,30.01,SSE,161,4.0,10.0,89,0.00,,,0.00,,2013-01-27 13:52:00,
2013-01-27 08:02:00,62.0,59.0,30.00,SSE,160,3.0,9.0,89,0.00,,,0.00,,2013-01-27 14:02:00,
2013-01-27 08:12:00,62.0,59.0,30.00,SSE,160,3.0,9.0,89,0.00,,,0.00,,2013-01-27 14:12:00,
2013-01-27 08:22:00,62.0,59.0,30.01,SSE,160,4.0,9.0,90,0.00,,,0.00,,2013-01-27 14:22:00,
2013-01-27 08:32:00,62.0,59.0,30.00,SSE,159,0.0,8.0,90,0.00,,,0.00,,2013-01-27 14:32:00,
2013-01-27 08:42:00,62.0,59.0,30.00,SSE,159,0.0,8.0,90,0.00,,,0.00,,2013-01-27 14:42:00,
2013-01-27 08:52:00,62.0,59.0,29.99,SSE,157,6.0,14.0,90,0.00,,,0.00,,2013-01-27 14:52:00,
2013-01-27 09:02:00,62.0,59.0,29.99,SSE,160,3.0,8.0,91,0.00,,,0.00,,2013-01-27 15:02:00,
2013-01-27 09:12:00,62.0,59.0,29.99,SSE,160,3.0,8.0,91,0.00,,,0.00,,2013-01-27 15:12:00,
2013-01-27 09:22:00,62.0,59.0,29.99,SSE,160,3.0,8.0,91,0.00,,,0.00,,2013-01-27 15:22:00,
2013-01-27 09:32:00,63.0,60.0,30.01,South,176,5.0,11.0,91,0.00,,,0.00,,2013-01-27 15:32:00,
2013-01-27 09:42:00,63.0,60.0,30.01,South,176,5.0,11.0,91,0.00,,,0.00,,2013-01-27 15:42:00,
2013-01-27 09:53:00,63.0,60.0,30.00,SSW,194,7.0,20.0,90,0.00,,,0.00,,2013-01-27 15:53:00,
2013-01-27 10:02:00,64.0,61.0,30.01,South,184,5.0,14.0,90,0.00,,,0.00,,2013-01-27 16:02:00,
2013-01-27 10:12:00,64.0,61.0,30.01,South,184,5.0,14.0,90,0.00,,,0.00,,2013-01-27 16:12:00,
2013-01-27 10:21:00,65.0,61.0,30.01,South,188,2.0,12.0,88,0.00,,,0.00,,2013-01-27 16:21:00,
2013-01-27 10:32:00,65.0,61.0,30.02,South,188,4.0,12.0,87,0.00,,,0.00,,2013-01-27 16:32:00,
2013-01-27 10:42:00,65.0,61.0,30.02,South,188,4.0,12.0,87,0.00,,,0.00,,2013-01-27 16:42:00,
2013-01-27 10:52:00,66.0,62.0,30.01,SSW,199,6.0,17.0,86,0.00,,,0.00,,2013-01-27 16:52:00,
2013-01-27 11:02:00,66.0,61.0,30.01,South,187,7.0,15.0,85,0.00,,,0.00,,2013-01-27 17:02:00,
2013-01-27 11:12:00,66.0,61.0,30.01,South,187,7.0,15.0,85,0.00,,,0.00,,2013-01-27 17:12:00,
2013-01-27 11:22:00,67.0,62.0,30.02,SSW,196,10.0,16.0,83,0.00,,,0.00,,2013-01-27 17:22:00,
2013-01-27 11:32:00,68.0,62.0,30.01,SSW,194,7.0,19.0,80,0.00,,,0.00,,2013-01-27 17:32:00,
2013-01-27 11:42:00,68.0,62.0,30.01,SSW,194,7.0,19.0,80,0.00,,,0.00,,2013-01-27 17:42:00,
2013-01-27 11:52:00,68.0,62.0,30.01,SSW,195,10.0,17.0,80,0.00,,,0.00,,2013-01-27 17:52:00,
2013-01-27 12:02:00,69.0,62.0,30.00,SSW,195,9.0,18.0,78,0.00,,,0.00,,2013-01-27 18:02:00,
2013-01-27 12:11:00,69.0,62.0,30.00,SSW,195,9.0,18.0,78,0.00,,,0.00,,2013-01-27 18:11:00,
2013-01-27 12:22:00,70.0,62.0,30.00,SSW,202,9.0,15.0,76,0.00,,,0.00,,2013-01-27 18:22:00,
2013-01-27 12:32:00,70.0,62.0,29.99,SSW,199,12.0,18.0,76,0.00,,,0.00,,2013-01-27 18:32:00,
2013-01-27 12:42:00,70.0,62.0,29.99,SSW,199,12.0,18.0,76,0.00,,,0.00,,2013-01-27 18:42:00,
2013-01-27 12:52:00,71.0,62.0,29.98,SSW,205,9.0,17.0,74,0.00,,,0.00,,2013-01-27 18:52:00,
2013-01-27 13:02:00,71.0,62.0,29.97,SSW,202,8.0,17.0,73,0.00,,,0.00,,2013-01-27 19:02:00,
2013-01-27 13:11:00,71.0,62.0,29.97,SSW,202,8.0,17.0,73,0.00,,,0.00,,2013-01-27 19:11:00,
2013-01-27 13:22:00,73.0,62.0,29.96,SSW,206,8.0,19.0,69,0.00,,,0.00,,2013-01-27 19:22:00,
2013-01-27 13:32:00,73.0,63.0,29.95,SSW,200,7.0,20.0,70,0.00,,,0.00,,2013-01-27 19:32:00,
2013-01-27 13:42:00,73.0,63.0,29.95,SSW,200,7.0,20.0,70,0.00,,,0.00,,2013-01-27 19:42:00,
2013-01-27 13:51:00,74.0,62.0,29.94,SSW,202,9.0,18.0,67,0.00,,,0.00,,2013-01-27 19:51:00,
2013-01-27 14:02:00,75.0,62.0,29.92,SSW,200,7.0,17.0,65,0.00,,,0.00,,2013-01-27 20:02:00,
2013-01-27 14:11:00,75.0,62.0,29.92,SSW,200,7.0,17.0,65,0.00,,,0.00,,2013-01-27 20:11:00,
2013-01-27 14:22:00,75.0,62.0,29.91,SSW,212,8.0,20.0,65,0.00,,,0.00,,2013-01-27 20:22:00,
2013-01-27 14:32:00,76.0,62.0,29.91,SSW,201,12.0,17.0,63,0.00,,,0.00,,2013-01-27 20:32:00,
2013-01-27 14:42:00,76.0,62.0,29.91,SSW,201,12.0,17.0,63,0.00,,,0.00,,2013-01-27 20:42:00,
2013-01-27 14:52:00,76.0,62.0,29.90,SSW,194,12.0,23.0,62,0.00,,,0.00,,2013-01-27 20:52:00,
2013-01-27 15:02:00,77.0,62.0,29.89,SSW,206,9.0,22.0,59,0.00,,,0.00,,2013-01-27 21:02:00,
2013-01-27 15:12:00,77.0,62.0,29.89,SSW,206,9.0,22.0,59,0.00,,,0.00,,2013-01-27 21:12:00,
2013-01-27 15:22:00,77.0,63.0,29.89,SSW,209,3.0,18.0,62,0.00,,,0.00,,2013-01-27 21:22:00,
2013-01-27 15:33:00,77.0,63.0,29.89,SSW,194,8.0,16.0,61,0.00,,,0.00,,2013-01-27 21:33:00,
2013-01-27 15:42:00,77.0,63.0,29.89,SSW,194,8.0,16.0,61,0.00,,,0.00,,2013-01-27 21:42:00,
2013-01-27 15:52:00,77.0,63.0,29.88,SSW,202,8.0,22.0,61,0.00,,,0.00,,2013-01-27 21:52:00,
2013-01-27 16:02:00,77.0,63.0,29.88,SSW,211,8.0,19.0,62,0.00,,,0.00,,2013-01-27 22:02:00,
2013-01-27 16:11:00,77.0,63.0,29.88,SSW,211,8.0,19.0,62,0.00,,,0.00,,2013-01-27 22:11:00,
2013-01-27 16:22:00,76.0,62.0,29.87,South,190,8.0,17.0,63,0.00,,,0.00,,2013-01-27 22:22:00,
2013-01-27 16:32:00,78.0,63.0,29.87,SW,217,6.0,18.0,61,0.00,,,0.00,,2013-01-27 22:32:00,
2013-01-27 16:42:00,78.0,63.0,29.87,SW,217,6.0,18.0,61,0.00,,,0.00,,2013-01-27 22:42:00,
2013-01-27 16:52:00,78.0,63.0,29.87,SSW,198,10.0,21.0,61,0.00,,,0.00,,2013-01-27 22:52:00,
2013-01-27 17:02:00,76.0,63.0,29.87,South,184,4.0,16.0,64,0.00,,,0.00,,2013-01-27 23:02:00,
2013-01-27 17:12:00,76.0,63.0,29.87,South,184,4.0,16.0,64,0.00,,,0.00,,2013-01-27 23:12:00,
2013-01-27 17:21:00,77.0,63.0,29.87,South,185,5.0,15.0,63,0.00,,,0.00,,2013-01-27 23:21:00,
2013-01-27 17:32:00,76.0,63.0,29.87,SSW,202,9.0,17.0,65,0.00,,,0.00,,2013-01-27 23:32:00,
2013-01-27 17:41:00,76.0,63.0,29.87,SSW,202,9.0,17.0,65,0.00,,,0.00,,2013-01-27 23:41:00,
2013-01-27 17:52:00,76.0,64.0,29.88,SSW,199,4.0,15.0,66,0.00,,,0.00,,2013-01-27 23:52:00,
2013-01-27 18:02:00,75.0,63.0,29.88,SSE,150,6.0,15.0,67,0.00,,,0.00,,2013-01-28 00:02:00,
2013-01-27 18:11:00,75.0,63.0,29.88,SSE,150,6.0,15.0,67,0.00,,,0.00,,2013-01-28 00:11:00,
2013-01-27 18:21:00,74.0,64.0,29.88,SSW,202,6.0,13.0,70,0.00,,,0.00,,2013-01-28 00:21:00,
2013-01-27 18:32:00,74.0,64.0,29.88,SSE,156,5.0,12.0,71,0.00,,,0.00,,2013-01-28 00:32:00,
2013-01-27 18:42:00,74.0,64.0,29.88,SSE,156,5.0,12.0,71,0.00,,,0.00,,2013-01-28 00:42:00,
2013-01-27 18:51:00,73.0,64.0,29.88,SSE,157,5.0,12.0,73,0.00,,,0.00,,2013-01-28 00:51:00,
2013-01-27 19:01:00,73.0,64.0,29.89,SSE,157,6.0,17.0,74,0.00,,,0.00,,2013-01-28 01:01:00,
2013-01-27 19:11:00,73.0,64.0,29.89,SSE,157,6.0,17.0,74,0.00,,,0.00,,2013-01-28 01:11:00,
2013-01-27 19:22:00,72.0,64.0,29.89,SSE,149,7.0,17.0,75,0.00,,,0.00,,2013-01-28 01:22:00,
2013-01-27 19:33:00,71.0,63.0,29.89,South,169,5.0,16.0,77,0.00,,,0.00,,2013-01-28 01:33:00,
2013-01-27 19:42:00,71.0,63.0,29.89,South,169,5.0,16.0,77,0.00,,,0.00,,2013-01-28 01:42:00,
2013-01-27 19:52:00,71.0,64.0,29.90,SSE,167,6.0,13.0,78,0.00,,,0.00,,2013-01-28 01:52:00,
2013-01-27 20:02:00,71.0,64.0,29.90,South,186,5.0,21.0,79,0.00,,,0.00,,2013-01-28 02:02:00,
2013-01-27 20:11:00,71.0,64.0,29.90,South,186,5.0,21.0,79,0.00,,,0.00,,2013-01-28 02:11:00,
2013-01-27 20:22:00,70.0,63.0,29.90,South,178,4.0,15.0,79,0.00,,,0.00,,2013-01-28 02:22:00,
2013-01-27 20:32:00,70.0,64.0,29.91,SSE,168,6.0,21.0,80,0.00,,,0.00,,2013-01-28 02:32:00,
2013-01-27 20:42:00,70.0,64.0,29.91,SSE,168,6.0,21.0,80,0.00,,,0.00,,2013-01-28 02:42:00,
2013-01-27 20:52:00,70.0,64.0,29.91,SSE,161,7.0,15.0,81,0.00,,,0.00,,2013-01-28 02:52:00,
2013-01-27 21:02:00,70.0,64.0,29.91,SSE,160,5.0,18.0,81,0.00,,,0.00,,2013-01-28 03:02:00,
2013-01-27 21:12:00,70.0,64.0,29.91,SSE,160,5.0,18.0,81,0.00,,,0.00,,2013-01-28 03:12:00,
2013-01-27 21:21:00,70.0,64.0,29.92,SSW,209,7.0,15.0,82,0.00,,,0.00,,2013-01-28 03:21:00,
2013-01-27 21:32:00,70.0,64.0,29.91,SSW,200,5.0,14.0,82,0.00,,,0.00,,2013-01-28 03:32:00,
2013-01-27 21:42:00,70.0,64.0,29.91,SSW,200,5.0,14.0,82,0.00,,,0.00,,2013-01-28 03:42:00,
2013-01-27 21:52:00,69.0,63.0,29.91,South,182,6.0,15.0,82,0.00,,,0.00,,2013-01-28 03:52:00,
2013-01-27 22:02:00,69.0,64.0,29.91,SSW,200,3.0,18.0,83,0.00,,,0.00,,2013-01-28 04:02:00,
2013-01-27 22:11:00,69.0,64.0,29.91,SSW,200,3.0,18.0,83,0.00,,,0.00,,2013-01-28 04:11:00,
2013-01-27 22:21:00,69.0,64.0,29.91,South,175,3.0,15.0,83,0.00,,,0.00,,2013-01-28 04:21:00,
2013-01-27 22:32:00,69.0,64.0,29.91,SSW,192,2.0,17.0,83,0.00,,,0.00,,2013-01-28 04:32:00,
2013-01-27 22:42:00,69.0,64.0,29.91,SSW,192,2.0,17.0,83,0.00,,,0.00,,2013-01-28 04:42:00,
2013-01-27 22:52:00,69.0,64.0,29.92,SW,215,5.0,19.0,83,0.00,,,0.00,,2013-01-28 04:52:00,
2013-01-27 23:03:00,69.0,64.0,29.92,SSW,206,6.0,12.0,83,0.00,,,0.00,,2013-01-28 05:03:00,
2013-01-27 23:11:00,69.0,64.0,29.92,SSW,206,6.0,12.0,83,0.00,,,0.00,,2013-01-28 05:11:00,
2013-01-27 23:21:00,69.0,64.0,29.92,SSE,159,5.0,15.0,84,0.00,,,0.00,,2013-01-28 05:21:00,
2013-01-27 23:32:00,69.0,64.0,29.93,SSW,208,7.0,14.0,84,0.00,,,0.00,,2013-01-28 05:32:00,
2013-01-27 23:42:00,69.0,64.0,29.93,SSW,208,7.0,14.0,84,0.00,,,0.00,,2013-01-28 05:42:00,
2013-01-27 23:52:00,69.0,64.0,29.93,SSE,157,4.0,14.0,84,0.00,,,0.00,,2013-01-28 05:52:00,